Location: Red Deer
(52.2681°N, 113.8112°W)
Time: 19:23:57
(UTC-06:00)

ISS - Visible Passes

Search period start: 20 May 2024 00:00
Search period end: 30 May 2024 00:00
Orbit: 409 x 414 km, 51.6° (Epoch: 20 May)

Date Brightness Start Highest point End Pass type
(mag) Time Alt. Az. Time Alt. Az. Time Alt. Az.
20 May -3.5 23:06:43 10° W 23:09:58 50° SSW 23:12:13 18° SE visible
21 May -1.5 00:44:02 10° WSW 00:45:01 14° WSW 00:45:01 14° WSW visible
21 May -3.7 22:16:44 10° W 22:20:03 64° SSW 22:23:20 10° ESE visible
21 May -2.3 23:53:40 10° W 23:56:18 22° SSW 23:56:43 21° SSW visible
22 May -2.7 23:03:27 10° W 23:06:26 31° SSW 23:08:25 17° SSE visible
23 May -1.4 23:51:10 10° WSW 23:52:27 12° SW 23:52:53 12° SSW visible
24 May -1.8 23:00:15 10° W 23:02:34 18° SW 23:04:33 11° S visible
